KINEIS-3E

Last updated on Wed Oct 22 2025 00:02:42 GMT+0000 (Coordinated Universal Time)

1 61222U 24172C 25294.23380197 .00004378 00000+0 69991-3 0 9992 2 61222 98.0293 21.9925 0001236 122.2807 237.8521 14.72324949 58194
UTC large
Height (km)
Speed (km/s)
/
Latitude / Longitude
Inclination (degrees)
Orbital Period (minutes)
Azimuth
Elevation
Range (km)
Doppler Factor

Next 0 passes for location: London (51.5072 / 0.1276)

Sorry there are no passes over London.